Stündliche Wetter Radomyschl

Heute, 1 Oktober, Donnerstag

Zeit Temperatur Niederschläge Wind Luftdruck Luftfeuchtigkeit
00:00 +12°C° 0.2 mm 5 m/S 740 mmHg 92%
01:00 +12°C° 0.2 mm 5 m/S 739 mmHg 91%
02:00 +12°C° 0 mm 5 m/S 739 mmHg 86%
03:00 +12°C° 0.2 mm 5 m/S 739 mmHg 87%
04:00 +12°C° 0.2 mm 5 m/S 739 mmHg 89%
05:00 +13°C° 0.2 mm 6 m/S 739 mmHg 90%
06:00 +13°C° 0.1 mm 6 m/S 739 mmHg 89%
07:00 +13°C° 0.1 mm 6 m/S 740 mmHg 87%
08:00 +12°C° 0 mm 7 m/S 741 mmHg 85%
09:00 +15°C° 0 mm 7 m/S 741 mmHg 79%
10:00 +16°C° 0 mm 7 m/S 742 mmHg 72%
11:00 +17°C° 0 mm 7 m/S 742 mmHg 65%
12:00 +18°C° 0.1 mm 7 m/S 742 mmHg 64%
13:00 +18°C° 0.1 mm 7 m/S 743 mmHg 63%
14:00 +18°C° 0.1 mm 7 m/S 743 mmHg 61%
15:00 +19°C° 0.4 mm 6 m/S 743 mmHg 67%
16:00 +17°C° 0.4 mm 6 m/S 743 mmHg 73%
17:00 +16°C° 0.4 mm 5 m/S 743 mmHg 78%
18:00 +15°C° 0.1 mm 5 m/S 743 mmHg 80%
19:00 +14°C° 0.1 mm 6 m/S 743 mmHg 83%
20:00 +14°C° 0.1 mm 6 m/S 743 mmHg 85%
21:00 +13°C° 0.1 mm 6 m/S 744 mmHg 87%
22:00 +13°C° 0.1 mm 5 m/S 744 mmHg 88%
23:00 +13°C° 0.1 mm 5 m/S 744 mmHg 90%

Morgen, 2 Oktober, Freitag

Zeit Temperatur Niederschläge Wind Luftdruck Luftfeuchtigkeit
00:00 +13°C° 0.2 mm 5 m/S 744 mmHg 90%
01:00 +13°C° 0.2 mm 5 m/S 744 mmHg 90%
02:00 +13°C° 0.2 mm 5 m/S 744 mmHg 91%
03:00 +13°C° 0 mm 5 m/S 744 mmHg 91%
04:00 +12°C° 0 mm 5 m/S 744 mmHg 92%
05:00 +12°C° 0 mm 5 m/S 744 mmHg 93%
06:00 +12°C° 0 mm 5 m/S 744 mmHg 92%
07:00 +12°C° 0 mm 5 m/S 745 mmHg 91%
08:00 +13°C° 0 mm 5 m/S 745 mmHg 91%
09:00 +13°C° 0.1 mm 5 m/S 745 mmHg 89%
10:00 +14°C° 0.1 mm 4 m/S 745 mmHg 88%
11:00 +14°C° 0.1 mm 4 m/S 745 mmHg 86%
12:00 +14°C° 0.1 mm 4 m/S 746 mmHg 85%
13:00 +15°C° 0.1 mm 4 m/S 746 mmHg 83%
14:00 +15°C° 0.1 mm 4 m/S 746 mmHg 82%
15:00 +15°C° 0.1 mm 4 m/S 746 mmHg 82%
16:00 +16°C° 0.1 mm 3 m/S 746 mmHg 82%
17:00 +16°C° 0.1 mm 3 m/S 746 mmHg 82%
18:00 +16°C° 0.2 mm 3 m/S 746 mmHg 85%
19:00 +14°C° 0.2 mm 3 m/S 747 mmHg 88%
20:00 +13°C° 0.2 mm 3 m/S 747 mmHg 91%
21:00 +13°C° 0 mm 3 m/S 747 mmHg 91%
22:00 +13°C° 0 mm 2 m/S 747 mmHg 91%
23:00 +13°C° 0 mm 2 m/S 747 mmHg 92%

übermorgen, 3 Oktober, Samstag

Zeit Temperatur Niederschläge Wind Luftdruck Luftfeuchtigkeit
00:00 +13°C° 0 mm 2 m/S 747 mmHg 92%
01:00 +13°C° 0 mm 2 m/S 748 mmHg 92%
02:00 +12°C° 0 mm 2 m/S 748 mmHg 92%
03:00 +12°C° 0 mm 2 m/S 748 mmHg 91%
04:00 +12°C° 0 mm 2 m/S 748 mmHg 91%
05:00 +11°C° 0 mm 3 m/S 748 mmHg 90%
06:00 +12°C° 0 mm 3 m/S 748 mmHg 87%
07:00 +13°C° 0 mm 3 m/S 748 mmHg 84%
08:00 +13°C° 0 mm 4 m/S 749 mmHg 81%
09:00 +15°C° 0 mm 4 m/S 749 mmHg 77%
10:00 +18°C° 0 mm 4 m/S 749 mmHg 73%
11:00 +19°C° 0 mm 5 m/S 749 mmHg 69%
12:00 +20°C° 0 mm 5 m/S 749 mmHg 66%
13:00 +21°C° 0 mm 5 m/S 749 mmHg 63%
14:00 +21°C° 0 mm 5 m/S 749 mmHg 60%
15:00 +20°C° 0 mm 5 m/S 749 mmHg 64%
16:00 +20°C° 0 mm 4 m/S 749 mmHg 67%
17:00 +19°C° 0 mm 4 m/S 749 mmHg 71%
18:00 +18°C° 0 mm 4 m/S 749 mmHg 73%
19:00 +17°C° 0 mm 5 m/S 749 mmHg 74%
20:00 +16°C° 0 mm 5 m/S 749 mmHg 76%
21:00 +16°C° 0 mm 5 m/S 749 mmHg 76%
22:00 +16°C° 0 mm 5 m/S 749 mmHg 77%
23:00 +16°C° 0 mm 5 m/S 749 mmHg 77%

4 Oktober, Sonntag

Zeit Temperatur Niederschläge Wind Luftdruck Luftfeuchtigkeit
00:00 +15°C° 0 mm 5 m/S 749 mmHg 79%
01:00 +15°C° 0 mm 5 m/S 749 mmHg 81%
02:00 +15°C° 0 mm 5 m/S 749 mmHg 82%
03:00 +15°C° 0 mm 5 m/S 749 mmHg 83%
04:00 +15°C° 0 mm 5 m/S 749 mmHg 84%
05:00 +14°C° 0 mm 5 m/S 750 mmHg 84%
06:00 +15°C° 0 mm 6 m/S 750 mmHg 81%
07:00 +15°C° 0 mm 6 m/S 750 mmHg 78%
08:00 +16°C° 0 mm 7 m/S 750 mmHg 75%
09:00 +18°C° 0 mm 7 m/S 750 mmHg 69%
10:00 +20°C° 0 mm 7 m/S 750 mmHg 63%
11:00 +22°C° 0 mm 7 m/S 751 mmHg 56%
12:00 +22°C° 0 mm 7 m/S 751 mmHg 55%
13:00 +23°C° 0 mm 8 m/S 750 mmHg 53%
14:00 +23°C° 0 mm 8 m/S 750 mmHg 51%
15:00 +22°C° 0 mm 7 m/S 750 mmHg 55%
16:00 +21°C° 0 mm 6 m/S 750 mmHg 59%
17:00 +20°C° 0 mm 5 m/S 750 mmHg 63%
18:00 +20°C° 0 mm 5 m/S 750 mmHg 64%
19:00 +19°C° 0 mm 6 m/S 751 mmHg 64%
20:00 +18°C° 0 mm 7 m/S 751 mmHg 65%
21:00 +17°C° 0 mm 7 m/S 751 mmHg 67%
22:00 +17°C° 0 mm 6 m/S 751 mmHg 69%
23:00 +17°C° 0 mm 6 m/S 751 mmHg 71%

5 Oktober, Montag

Zeit Temperatur Niederschläge Wind Luftdruck Luftfeuchtigkeit
00:00 +16°C° 0 mm 6 m/S 751 mmHg 72%
01:00 +16°C° 0 mm 6 m/S 751 mmHg 74%
02:00 +15°C° 0 mm 6 m/S 751 mmHg 75%
03:00 +15°C° 0 mm 6 m/S 751 mmHg 76%
04:00 +15°C° 0 mm 6 m/S 751 mmHg 77%
05:00 +15°C° 0 mm 6 m/S 751 mmHg 78%
06:00 +15°C° 0 mm 6 m/S 751 mmHg 74%
07:00 +16°C° 0 mm 7 m/S 751 mmHg 69%
08:00 +16°C° 0 mm 8 m/S 751 mmHg 65%
09:00 +18°C° 0 mm 8 m/S 751 mmHg 60%
10:00 +20°C° 0 mm 8 m/S 752 mmHg 55%
11:00 +21°C° 0 mm 8 m/S 752 mmHg 51%
12:00 +22°C° 0 mm 8 m/S 751 mmHg 48%
13:00 +22°C° 0 mm 8 m/S 751 mmHg 46%
14:00 +22°C° 0 mm 8 m/S 751 mmHg 44%
15:00 +22°C° 0 mm 7 m/S 751 mmHg 46%
16:00 +21°C° 0 mm 6 m/S 750 mmHg 48%
17:00 +20°C° 0 mm 5 m/S 750 mmHg 50%
18:00 +19°C° 0 mm 5 m/S 750 mmHg 50%
19:00 +19°C° 0 mm 6 m/S 750 mmHg 50%
20:00 +17°C° 0 mm 6 m/S 750 mmHg 51%
21:00 +17°C° 0 mm 6 m/S 750 mmHg 52%
22:00 +17°C° 0 mm 6 m/S 750 mmHg 53%
23:00 +16°C° 0 mm 6 m/S 750 mmHg 54%

6 Oktober, Dienstag

Zeit Temperatur Niederschläge Wind Luftdruck Luftfeuchtigkeit
00:00 +16°C° 0 mm 6 m/S 750 mmHg 56%
01:00 +16°C° 0 mm 6 m/S 750 mmHg 58%
02:00 +16°C° 0 mm 6 m/S 750 mmHg 61%
03:00 +15°C° 0 mm 6 m/S 750 mmHg 63%
04:00 +15°C° 0 mm 5 m/S 750 mmHg 64%
05:00 +14°C° 0 mm 4 m/S 750 mmHg 66%
06:00 +14°C° 0 mm 5 m/S 750 mmHg 62%
07:00 +14°C° 0 mm 5 m/S 750 mmHg 58%
08:00 +15°C° 0 mm 6 m/S 750 mmHg 54%
09:00 +16°C° 0 mm 6 m/S 750 mmHg 50%
10:00 +19°C° 0 mm 6 m/S 750 mmHg 46%
11:00 +21°C° 0 mm 7 m/S 750 mmHg 42%
12:00 +21°C° 0 mm 7 m/S 750 mmHg 41%
13:00 +22°C° 0 mm 7 m/S 750 mmHg 39%
14:00 +23°C° 0 mm 7 m/S 749 mmHg 38%
15:00 +22°C° 0 mm 6 m/S 749 mmHg 41%
16:00 +21°C° 0 mm 6 m/S 749 mmHg 43%
17:00 +20°C° 0 mm 5 m/S 749 mmHg 46%
18:00 +19°C° 0 mm 5 m/S 749 mmHg 47%
19:00 +17°C° 0 mm 6 m/S 749 mmHg 48%
20:00 +17°C° 0 mm 6 m/S 749 mmHg 49%
21:00 +16°C° 0 mm 6 m/S 749 mmHg 50%
22:00 +16°C° 0 mm 6 m/S 749 mmHg 51%
23:00 +16°C° 0 mm 6 m/S 749 mmHg 52%
Mehr zeigen